Wind_Speed
11 11 12 13 13 13 13 13 13 13 14 14 14 15 15 15 16 16 16 15 15 16 16 16 16 16 16 16 16 16 15 15 16 16 17 17 18 18
12 13 14 14 15 15 15 15 15 15 15 15 16 16 17 17 17 17 17 17 17 17 17 17 17 17 17 17 17 17 17 17 17 17 18 18 19 19
14 14 15 16 16 17 17 17 16 16 17 17 17 18 18 19 19 19 19 20 19 18 19 19 19 19 19 19 19 19 19 19 19 19 19 19 19 19
16 16 17 17 18 18 18 18 18 18 19 19 19 19 20 20 21 21 21 21 21 21 21 21 21 22 21 21 21 20 20 20 20 20 20 20 21 21
17 18 18 19 19 20 20 20 20 20 20 21 21 22 22 22 23 23 23 23 23 23 23 23 23 23 23 22 22 22 22 22 22 22 22 22 22 22
19 20 20 21 21 21 22 22 22 22 22 23 24 24 24 24 25 25 25 25 25 25 25 25 25 25 25 24 23 23 23 24 24 24 24 24 24 24
21 22 22 22 23 23 24 24 24 24 25 25 26 27 27 27 26 27 27 27 27 27 27 27 27 27 27 26 26 25 25 24 24 25 25 25 26 26
23 23 23 23 24 24 25 25 26 26 27 27 28 28 28 28 29 29 29 28 28 28 28 28 28 28 28 28 28 27 26 25 25 26 26 27 27 27
25 25 25 25 25 26 26 27 28 28 28 29 29 29 29 30 30 30 31 31 30 30 29 29 29 29 29 29 28 28 28 28 27 27 27 27 28 28
26 26 26 27 27 28 29 29 30 30 30 30 30 31 31 31 31 32 31 31 31 30 30 30 30 31 31 30 30 30 30 30 29 29 28 28 29 29
27 28 28 29 29 30 30 31 31 32 32 32 32 32 33 33 33 33 33 33 32 31 32 32 31 32 32 32 32 31 31 31 31 30 30 30 30 30
29 29 30 30 31 32 32 32 33 33 34 34 34 34 34 34 35 35 35 34 34 34 33 33 33 33 33 32 32 32 32 32 32 32 32 32 32 32
31 31 31 32 32 33 34 34 35 35 35 35 35 35 35 35 36 36 36 35 35 36 36 36 36 36 35 33 32 32 32 33 33 33 33 33 33 32
32 32 33 33 34 34 35 35 36 36 36 36 36 36 37 37 37 37 37 37 37 37 37 38 37 37 36 36 35 34 33 33 33 33 34 34 34 34
34 34 35 35 35 35 36 36 36 36 36 37 37 38 38 38 38 38 38 38 38 39 39 38 38 38 38 38 37 36 35 35 34 33 34 34 34 34
35 36 37 37 37 37 37 38 38 37 38 38 38 38 39 39 39 39 39 39 40 40 40 40 39 39 38 38 37 36 36 35 35 35 34 34 34 33
37 38 38 38 39 39 39 39 39 39 39 39 40 40 40 40 40 40 41 41 40 40 40 40 40 40 39 38 38 38 37 37 36 35 35 34 33 32
38 38 38 39 40 40 40 40 40 40 40 40 40 40 40 40 41 41 42 41 41 40 40 40 40 40 39 38 37 37 36 36 36 36 35 34 33 33
39 39 39 40 40 40 40 40 40 40 41 41 41 41 41 41 42 42 42 42 42 42 41 41 40 39 39 37 35 35 35 34 35 35 34 34 33 33
39 39 39 39 39 39 39 40 40 40 41 41 42 42 42 42 43 43 42 42 41 41 40 38 38 37 37 36 35 35 34 34 33 33 33 33 32 32
40 39 39 40 40 40 40 40 40 41 41 42 42 42 43 42 42 41 41 41 40 40 39 37 37 37 36 36 36 34 34 33 33 33 32 32 31 31
40 39 39 40 40 41 41 41 41 41 42 42 43 43 43 42 41 41 41 40 40 39 38 38 37 36 36 36 36 35 34 33 32 32 32 31 31 31
40 40 40 40 40 40 41 42 43 43 43 43 43 43 43 42 42 41 41 40 39 38 38 37 36 35 34 34 34 34 33 33 32 32 32 31 30 30
Wind_Direction
322 322 322 323 323 323 323 322 321 321 322 322 321 322 322 322 322 323 324 322 316 313 311 304 303 302 301 299 298 295 292 290 288 286 282 279 276 273
320 320 320 322 323 322 318 316 316 316 316 316 317 318 318 317 316 316 317 317 316 313 310 307 304 302 300 298 296 294 292 290 290 288 284 279 276 275
317 317 316 316 318 318 317 314 311 311 311 311 312 312 313 312 312 312 312 313 312 310 309 307 306 304 300 298 294 292 290 289 288 287 284 278 275 276
311 310 310 311 312 313 314 312 310 308 307 307 308 309 310 311 310 309 309 310 310 308 308 308 307 305 301 297 293 290 288 286 284 283 282 279 278 277
306 307 307 307 308 309 310 310 309 306 306 306 306 306 307 308 308 307 306 307 307 305 305 305 305 304 302 298 293 289 287 285 283 282 280 280 280 278
304 304 305 304 305 305 306 307 307 306 305 304 305 305 305 306 306 306 306 304 304 303 303 303 303 302 301 298 294 290 287 284 282 282 281 279 279 277
303 303 302 301 302 303 305 306 305 304 303 302 303 304 304 304 305 305 305 303 302 301 301 300 301 300 299 297 295 292 289 285 283 281 280 279 277 276
300 300 300 300 300 301 302 303 304 304 303 303 303 305 305 304 304 304 303 302 302 302 301 300 300 299 297 296 295 293 290 287 285 283 280 279 278 277
300 299 299 299 300 301 302 302 303 303 303 302 302 302 303 303 303 303 302 302 300 300 299 299 299 299 297 295 294 293 290 288 287 285 282 279 279 278
300 299 298 299 300 300 300 300 301 302 301 300 301 301 300 300 300 300 300 301 301 300 299 300 299 299 297 295 293 291 289 288 287 285 284 281 279 278
300 300 299 299 299 298 298 298 299 299 299 299 299 299 299 299 299 299 298 299 298 298 298 298 298 299 299 296 293 291 289 287 287 286 285 283 281 280
298 299 299 298 297 297 297 297 298 298 297 297 297 297 297 297 298 298 297 297 297 296 297 297 297 297 298 297 295 292 289 287 285 285 284 284 283 282
296 296 298 298 299 298 297 298 298 298 296 296 295 296 296 296 297 297 297 296 296 296 296 297 296 296 296 295 294 293 291 288 285 283 282 282 282 282
296 296 296 297 298 298 298 298 298 298 297 296 295 295 296 296 296 295 295 295 294 295 296 296 295 294 294 294 292 291 290 289 287 285 283 281 279 279
294 295 295 296 297 298 298 297 297 298 298 297 297 296 295 295 295 294 295 294 294 294 294 294 294 293 293 293 291 289 288 287 286 285 283 280 279 278
294 295 295 295 296 296 296 297 296 296 296 296 296 296 296 295 294 294 294 294 294 294 294 293 293 292 292 291 290 289 287 285 284 283 283 281 278 277
293 295 296 295 295 295 296 296 296 294 295 295 295 295 295 295 295 295 294 294 294 294 293 292 292 291 290 289 290 290 288 284 283 283 282 282 280 277
293 294 294 294 294 295 295 295 294 294 294 294 295 295 295 295 295 295 295 295 294 293 293 292 291 291 289 288 289 289 288 286 283 281 280 279 278 277
292 293 293 293 294 294 295 295 295 293 294 294 294 295 295 295 295 295 295 295 294 293 292 291 291 291 289 288 288 288 288 288 285 283 280 278 276 276
291 291 292 292 292 293 295 296 296 295 294 294 293 294 295 296 296 295 295 295 294 293 293 291 291 290 290 289 288 288 289 289 287 285 283 279 276 275
289 289 291 292 292 293 295 295 296 296 295 294 293 293 295 296 295 295 295 294 293 292 291 290 289 288 288 288 288 287 286 286 286 284 282 279 275 272
288 289 290 291 292 293 294 294 295 296 295 295 294 294 294 296 296 295 294 294 293 292 291 289 288 288 287 286 286 286 285 284 283 283 280 278 276 272
288 290 291 291 292 293 294 294 295 295 297 296 295 295 295 295 294 294 293 292 292 291 289 288 287 287 287 287 286 285 285 284 283 281 278 277 274 272
Height
5894 5892 5890 5888 5886 5885 5883 5880 5879 5876 5874 5872 5870 5867 5865 5863 5860 5858 5855 5853 5851 5849 5847 5845 5843 5841 5840 5838 5837 5835 5834 5833 5832 5831 5830 5829 5828 5828
5892 5890 5888 5886 5884 5882 5880 5878 5876 5874 5872 5869 5867 5864 5862 5859 5857 5855 5852 5850 5847 5845 5843 5841 5839 5837 5835 5834 5832 5831 5829 5828 5827 5826 5825 5824 5823 5822
5890 5888 5886 5884 5882 5879 5877 5875 5873 5871 5868 5866 5864 5861 5859 5856 5853 5851 5848 5846 5844 5841 5839 5836 5834 5832 5831 5829 5827 5825 5824 5823 5822 5821 5819 5818 5817 5817
5886 5885 5883 5881 5878 5876 5874 5871 5869 5866 5864 5862 5860 5857 5855 5852 5849 5847 5844 5841 5839 5836 5834 5832 5829 5827 5825 5823 5821 5819 5818 5817 5816 5815 5814 5813 5811 5811
5883 5881 5879 5877 5875 5872 5869 5867 5864 5862 5860 5857 5855 5853 5850 5847 5844 5842 5839 5836 5833 5831 5829 5826 5824 5821 5819 5817 5815 5813 5812 5810 5809 5808 5807 5806 5805 5804
5878 5876 5874 5872 5870 5867 5865 5862 5860 5857 5855 5852 5850 5847 5844 5841 5839 5836 5833 5830 5828 5825 5822 5820 5817 5814 5812 5810 5808 5806 5805 5803 5802 5801 5800 5799 5798 5797
5874 5872 5869 5867 5865 5862 5860 5857 5855 5852 5849 5847 5844 5841 5838 5836 5833 5830 5827 5824 5821 5818 5816 5813 5810 5807 5805 5803 5801 5799 5797 5796 5795 5793 5792 5791 5790 5789
5869 5866 5864 5862 5859 5857 5854 5852 5849 5846 5843 5840 5838 5835 5832 5829 5826 5823 5820 5818 5815 5812 5809 5806 5803 5800 5797 5795 5793 5791 5789 5788 5787 5785 5784 5783 5782 5781
5862 5860 5858 5855 5853 5850 5848 5845 5842 5839 5837 5834 5831 5828 5825 5822 5819 5816 5813 5810 5808 5805 5802 5799 5796 5793 5790 5788 5785 5783 5781 5780 5778 5777 5775 5774 5773 5773
5856 5853 5851 5848 5845 5843 5840 5837 5835 5832 5829 5826 5823 5821 5817 5814 5811 5809 5805 5802 5800 5797 5794 5791 5788 5785 5782 5779 5777 5775 5773 5771 5769 5768 5766 5765 5764 5763
5849 5846 5843 5841 5838 5835 5832 5829 5826 5823 5820 5817 5814 5811 5809 5806 5803 5800 5797 5794 5791 5788 5786 5783 5780 5777 5774 5770 5768 5766 5764 5762 5760 5759 5757 5756 5755 5753
5842 5839 5836 5833 5830 5826 5823 5820 5818 5815 5811 5808 5805 5803 5800 5797 5794 5791 5788 5785 5782 5780 5777 5773 5770 5768 5765 5762 5758 5756 5754 5752 5750 5749 5748 5746 5745 5743
5833 5830 5827 5824 5821 5817 5814 5811 5808 5805 5802 5799 5796 5793 5790 5787 5784 5781 5778 5775 5773 5770 5767 5763 5761 5758 5755 5753 5750 5747 5744 5742 5740 5739 5737 5736 5735 5733
5824 5821 5818 5815 5812 5808 5805 5802 5798 5795 5792 5789 5786 5783 5780 5777 5774 5771 5768 5765 5762 5759 5756 5753 5750 5747 5744 5742 5740 5737 5734 5732 5730 5728 5726 5725 5724 5723
5815 5812 5809 5805 5802 5799 5796 5792 5788 5785 5782 5779 5776 5773 5770 5766 5763 5760 5757 5754 5751 5748 5745 5742 5739 5736 5733 5731 5728 5726 5724 5722 5719 5717 5715 5714 5713 5712
5805 5802 5798 5795 5791 5788 5785 5781 5778 5774 5771 5768 5765 5762 5758 5755 5752 5748 5745 5742 5739 5737 5733 5730 5727 5724 5721 5719 5716 5714 5712 5710 5708 5706 5705 5703 5702 5702
5794 5791 5787 5784 5780 5777 5773 5770 5767 5763 5760 5757 5753 5750 5747 5744 5740 5737 5733 5730 5727 5724 5721 5718 5715 5712 5709 5707 5704 5702 5700 5698 5697 5695 5693 5692 5691 5691
5782 5779 5776 5772 5769 5765 5762 5758 5755 5752 5748 5745 5742 5738 5735 5732 5728 5725 5721 5718 5715 5712 5709 5706 5702 5699 5697 5695 5692 5690 5688 5686 5684 5683 5681 5680 5680 5680
5771 5768 5764 5761 5757 5754 5750 5747 5744 5740 5737 5733 5730 5727 5723 5720 5716 5712 5709 5706 5702 5699 5696 5693 5690 5687 5684 5683 5681 5678 5676 5674 5672 5671 5670 5669 5670 5670
5759 5756 5753 5749 5746 5742 5739 5736 5732 5729 5725 5722 5718 5715 5711 5708 5704 5700 5696 5693 5689 5686 5683 5680 5678 5675 5672 5671 5669 5667 5665 5663 5661 5660 5659 5658 5658 5658
5748 5744 5741 5738 5734 5731 5728 5724 5721 5717 5713 5710 5706 5702 5699 5695 5691 5687 5684 5680 5676 5673 5671 5669 5666 5664 5661 5659 5657 5656 5655 5653 5651 5649 5649 5648 5648 5648
5735 5732 5729 5726 5723 5719 5716 5712 5709 5705 5701 5697 5693 5690 5685 5681 5678 5675 5671 5667 5664 5661 5659 5657 5655 5652 5650 5648 5646 5645 5644 5642 5641 5639 5638 5638 5637 5637
5723 5720 5717 5714 5711 5707 5704 5700 5697 5693 5689 5685 5681 5677 5673 5669 5665 5662 5658 5654 5651 5649 5646 5644 5643 5641 5638 5637 5635 5633 5632 5631 5630 5629 5628 5627 5627 5628